Flag for Germany Past Weather in Vaihingen an der Enz, Baden-Württemberg, Germany — Yesterday and Last 2 Weeks

Now
66 °F

Sunny.


Feels Like: 66 °F
Forecast: 56 / 77 °F
Wind: 3 mph from North

Location: Stuttgart-Echterdingen

Current Time: May 26, 2016 at 10:32:22 PM

Latest Report: May 26, 2016 at 9:50 PM


Visibility: 10 mi

Pressure: 29.95 "Hg

Humidity: 64%

Dew Point: 54 °F

Location of Vaihingen an der EnzLocation

Past Weather in Vaihingen an der Enz — Graph

°F

Vaihingen an der Enz Temperature Yesterday

Maximum temperature yesterday: 64 °F (at 4:20 PM)
Minimum temperature yesterday: 50 °F (at 12:20 AM)
Average temperature yesterday: 55 °F

High & Low Weather Summary for the Past Weeks

 TemperatureHumidityPressure
High81 °F (May 22, 3:50 PM)100% (May 12, 5:50 PM)30.15 "Hg (May 12, 5:50 PM)
Low41 °F (May 15, 6:50 AM)34% (May 22, 1:50 PM)29.45 "Hg (May 12, 5:20 PM)
Average55 °F76%29.91 "Hg
* Reported May 11 9:20 PM — May 26 9:20 PM, Vaihingen an der Enz, Weather by CustomWeather, © 2016

Note: Actual official high and low records may vary slightly from our data, if they occured in-between our weather recording intervals... More about our weather records

Advertising

Vaihingen an der Enz Weather History for the Previous 24 Hours

Scroll right to see more
 ConditionsComfort  
Time TempWeatherWind HumidityBarometerVisibility
9:20 PM
Thu, May 26
68 °FPassing clouds.8 mph60%29.95 "HgN/A
8:50 PM70 °FScattered clouds.1 mph53%29.98 "HgN/A
8:20 PM72 °FScattered clouds.5 mph47%29.95 "HgN/A
7:50 PM72 °FScattered clouds.7 mph50%29.95 "HgN/A
7:20 PM73 °FScattered clouds.7 mph44%29.95 "HgN/A
6:50 PM73 °FScattered clouds.7 mph41%29.95 "HgN/A
6:20 PM73 °FScattered clouds.7 mph44%29.95 "HgN/A
5:50 PM73 °FPassing clouds.8 mph44%29.95 "HgN/A
5:20 PM73 °FScattered clouds.7 mph44%29.95 "HgN/A
4:50 PM73 °FScattered clouds.8 mph47%29.98 "HgN/A
4:20 PM73 °FScattered clouds.10 mph47%29.98 "HgN/A
3:50 PM73 °FPassing clouds.6 mph50%29.98 "HgN/A
3:20 PM73 °FPassing clouds.3 mph47%29.98 "HgN/A
2:50 PM73 °FPassing clouds.5 mph47%29.98 "HgN/A
2:20 PM72 °FPassing clouds.2 mph44%29.98 "HgN/A
1:50 PM72 °FPassing clouds.5 mph53%29.98 "HgN/A
1:20 PM70 °FPassing clouds.3 mph57%30.01 "HgN/A
12:50 PM70 °FPassing clouds.2 mph57%30.01 "HgN/A
12:20 PM68 °FScattered clouds.2 mph56%30.01 "HgN/A
11:50 AM66 °FScattered clouds.2 mph64%30.01 "HgN/A
11:20 AM64 °FScattered clouds.3 mph73%30.01 "HgN/A
10:50 AM63 °FPassing clouds.5 mph73%30.01 "HgN/A
10:20 AM63 °FSunny.2 mph77%30.01 "Hg10 mi
9:50 AM61 °FSunny.2 mph77%30.01 "Hg10 mi
9:20 AM59 °FSunny.5 mph82%30.04 "Hg10 mi
8:50 AM57 °FClear.2 mph88%30.04 "Hg5 mi
8:20 AM55 °FClear.3 mph88%30.01 "Hg5 mi
7:50 AM54 °FClear.2 mph94%30.01 "Hg5 mi
7:20 AM52 °FClear.1 mph94%30.01 "Hg4 mi
6:50 AM50 °FClear.2 mph94%30.01 "Hg6 mi
6:20 AM48 °FClear.1 mph94%30.01 "Hg6 mi
5:50 AM46 °FClear.2 mph100%30.01 "Hg6 mi
5:20 AM48 °FClear.2 mph94%30.01 "Hg10 mi
4:50 AM46 °FClear.2 mph93%30.01 "Hg10 mi
4:20 AM48 °FClear.3 mph94%30.01 "Hg10 mi
3:50 AM46 °FClear.3 mph93%30.01 "Hg10 mi
3:20 AM50 °FClear.1 mph94%30.01 "Hg10 mi
2:50 AM50 °FClear.2 mph94%30.01 "Hg10 mi
2:20 AM50 °FClear.5 mph94%30.01 "Hg10 mi
1:50 AM52 °FClear.3 mph88%30.01 "Hg10 mi
1:20 AM54 °FClear.2 mph88%30.01 "Hg10 mi
12:50 AM54 °FClear.2 mph88%30.01 "Hg10 mi
12:20 AM55 °FClear.2 mph88%30.01 "Hg10 mi
11:50 PM
Wed, May 25
55 °FClear.2 mph88%30.01 "Hg10 mi
11:20 PM57 °FPassing clouds.3 mph82%30.01 "HgN/A
10:50 PM57 °FPassing clouds.5 mph82%30.01 "HgN/A
10:20 PM57 °FPassing clouds.6 mph82%29.98 "HgN/A
Weather by CustomWeather, © 2016

See weather overviewHow to use our weather pages